Weather History for Mobile, AL

Change the Weather History Date:

Thursday, April 4, 2013

  Actual Average Record
Temperature  
Mean Temperature 62 °F 64 °F  
Max Temperature 71 °F 75 °F 90 °F (1967)
Min Temperature 52 °F 53 °F 33 °F (1987)
Degree Days  
Heating Degree Days 3 3  
Month to date heating degree days 13 15  
Since 1 July heating degree days 1499 1646  
Cooling Degree Days 0 2  
Month to date cooling degree days 0 8  
Year to date cooling degree days 44 63  
Growing Degree Days 12 (Base 50)    
Moisture  
Dew Point 52 °F    
Average Humidity 77    
Maximum Humidity 93    
Minimum Humidity 61    
Precipitation  
Precipitation T in 0.17 in 5.46 in (1911)
Month to date precipitation 1.31 0.71  
Year to date precipitation 16.29 17.62  
Snow  
Snow 0.00 in 0.00 in - ()
Month to date snowfall 0.0 0.0  
Since 1 July snowfall 0.0 0.2  
Snow Depth 0.00 in    
Sea Level Pressure  
Sea Level Pressure 29.93 in    
Wind  
Wind Speed 6 mph (NW)    
Max Wind Speed 15 mph    
Max Gust Speed 18 mph    
Visibility 7 miles    
Events Rain    
T = Trace of Precipitation, MM = Missing Value Source: NWS Daily Summary

Daily Weather History Graph

Daily Weather History Graph

Search for Another Location

Airport:

Trip Planner

Search our weather history database for the weather conditions in past years. The results will help you decide how hot, cold, wet, or windy it might be!

Date:

Astronomy

Apr. 04, 2013 Rise Set
Actual Time 6:38 AM CDT 7:14 PM CDT
Civil Twilight 6:13 AM CDT 7:38 PM CDT
Nautical Twilight 5:45 AM CDT 8:07 PM CDT
Astronomical Twilight 5:16 AM CDT 8:36 PM CDT
Moon 2:41 AM CDT (4/4) 1:53 PM CDT (4/4)
Length of Visible Light 13h 24m
Length of Day
12h 36m
Waning Crescent, 33% of the Moon is Illuminated
Apr 4
Waning Crescent
Apr 10
New
Apr 18
First Quarter
Apr 25
Full
May 2
Last Quarter

Hourly Weather History & Observations

Time (CDT) Temp. Dew Point Humidity Pressure Visibility Wind Dir Wind Speed Gust Speed Precip Events Conditions
12:56 AM 55.0 °F 50.0 °F 83% 29.95 in 10.0 mi North 6.9 mph - N/A   Overcast
1:56 AM 54.0 °F 50.0 °F 86% 29.93 in 10.0 mi North 6.9 mph - N/A   Overcast
2:03 AM 53.6 °F 50.0 °F 88% 29.93 in 10.0 mi North 5.8 mph - N/A   Overcast
2:56 AM 54.0 °F 50.0 °F 86% 29.92 in 10.0 mi NNW 4.6 mph - N/A   Overcast
3:56 AM 54.0 °F 51.1 °F 90% 29.90 in 10.0 mi NE 3.5 mph - N/A   Overcast
4:56 AM 54.0 °F 51.1 °F 90% 29.91 in 9.0 mi NW 3.5 mph - N/A   Overcast
5:36 AM 53.6 °F 51.8 °F 94% 29.92 in 7.0 mi NNW 5.8 mph - N/A   Overcast
5:56 AM 54.0 °F 51.1 °F 90% 29.92 in 5.0 mi NW 3.5 mph - 0.00 in Rain Light Rain
6:26 AM 53.6 °F 51.8 °F 94% 29.94 in 2.5 mi Calm Calm - 0.00 in Rain Light Rain
6:50 AM 53.6 °F 51.8 °F 94% 29.95 in 1.0 mi Calm Calm - 0.00 in   Overcast
6:56 AM 54.0 °F 52.0 °F 93% 29.94 in 1.0 mi Calm Calm - 0.00 in   Overcast
7:56 AM 54.0 °F 52.0 °F 93% 29.95 in 1.0 mi Calm Calm - N/A   Overcast
8:34 AM 53.6 °F 51.8 °F 94% 29.96 in 2.5 mi West 3.5 mph - N/A   Overcast
8:56 AM 54.0 °F 52.0 °F 93% 29.97 in 2.5 mi WNW 4.6 mph - N/A   Overcast
9:56 AM 57.0 °F 54.0 °F 89% 29.95 in 3.0 mi NNW 3.5 mph - N/A   Overcast
10:29 AM 59.0 °F 55.4 °F 88% 29.96 in 3.0 mi Calm Calm - N/A   Overcast
10:56 AM 61.0 °F 55.0 °F 81% 29.96 in 7.0 mi WSW 5.8 mph - N/A   Overcast
11:56 AM 62.1 °F 55.0 °F 78% 29.97 in 7.0 mi West 5.8 mph - N/A   Overcast
12:56 PM 64.9 °F 55.9 °F 73% 29.95 in 7.0 mi West 5.8 mph - N/A   Overcast
1:56 PM 68.0 °F 55.9 °F 65% 29.91 in 10.0 mi Variable 3.5 mph - N/A   Mostly Cloudy
2:10 PM 69.8 °F 55.4 °F 60% 29.91 in 10.0 mi West 4.6 mph - N/A   Mostly Cloudy
2:56 PM 69.1 °F 55.0 °F 61% 29.89 in 10.0 mi West 6.9 mph - N/A   Mostly Cloudy
3:21 PM 68.0 °F 55.4 °F 64% 29.89 in 10.0 mi West 5.8 mph - N/A   Mostly Cloudy
3:56 PM 66.0 °F 55.0 °F 68% 29.88 in 10.0 mi West 11.5 mph 17.3 mph N/A   Overcast
4:56 PM 64.9 °F 55.0 °F 70% 29.88 in 10.0 mi WNW 8.1 mph - N/A   Mostly Cloudy
5:37 PM 64.4 °F 53.6 °F 68% 29.88 in 10.0 mi West 8.1 mph - N/A   Mostly Cloudy
5:56 PM 63.0 °F 54.0 °F 72% 29.88 in 10.0 mi WNW 8.1 mph - N/A   Overcast
6:56 PM 60.1 °F 53.1 °F 78% 29.89 in 8.0 mi NW 8.1 mph - N/A   Overcast
7:56 PM 57.9 °F 52.0 °F 81% 29.91 in 8.0 mi NW 8.1 mph - N/A   Overcast
8:41 PM 57.2 °F 51.8 °F 82% 29.93 in 8.0 mi NW 9.2 mph - N/A   Overcast
8:56 PM 57.0 °F 50.0 °F 77% 29.93 in 8.0 mi NNW 9.2 mph - N/A   Overcast
9:23 PM 55.4 °F 50.0 °F 82% 29.94 in 8.0 mi NW 9.2 mph - N/A   Overcast
9:56 PM 55.0 °F 50.0 °F 83% 29.95 in 8.0 mi NW 10.4 mph 16.1 mph 0.00 in   Light Drizzle
10:04 PM 55.4 °F 50.0 °F 82% 29.96 in 8.0 mi NW 9.2 mph - 0.00 in   Overcast
10:19 PM 53.6 °F 50.0 °F 88% 29.95 in 8.0 mi NW 6.9 mph - 0.00 in   Overcast
10:56 PM 54.0 °F 48.9 °F 83% 29.96 in 8.0 mi WNW 6.9 mph - 0.00 in   Overcast
11:56 PM 53.1 °F 48.0 °F 83% 29.96 in 10.0 mi NW 8.1 mph 16.1 mph N/A   Overcast